星链-37232(STARLINK-37232)

导读

STARLINK-37232(NORAD编号69515)是美国SpaceX公司星链星座的V2 mini型通信卫星,隶属第二代星链组网序列。该卫星通过猎鹰9号运载火箭发射入轨,运行于高度约550公里、倾角53°的低地球轨道,轨道周期约94分钟,主要承担全球低轨宽带互联网接入服务,搭载升级型相控阵通信载荷,单星通信容量较初代星链提升约3倍。截至2026年6月,该卫星在轨运行状态稳定,已完成初始轨道校准和通信功能测试,接入星链现役服务网络,为全球偏远地区、航空航海等场景提供低时延高速网络支撑,是星链星座突破1.06万颗活跃卫星规模的组成部分。

Basic Information
目录编号:
69515
目录名称:
STARLINK-37232
国际标识:
2026-133H
轨道中心:
EARTH
卫星名称:
星链-37232
卫星全名:
星链-37232(STARLINK-37232)
卫星状态:
在轨 (已飞行85 天)
发射日期:
2026-06-12 UTC
国别 :
美国 (US)
星等 :
--
Orbit Information
数据来源 国际轨道数据
星历时间: 2026-09-05T01:51:12+0800
14小时前
查看轨道信息
半长轴: 6840.834km
偏心率: 0.0003818
轨道倾角: 53.159°
近地点辐角 32.666°
升交点赤经 303.486°
平近点角 327.458°
近地点: 460.085km
远地点: 465.309km
周期: 93.848分钟
每日圈数: 15.344022
Detailed Information
固有亮度:
5
最大亮度:
2.5
卫星平台:
Starlink V1.0
覆盖范围:
全球
运营商:
太空探索技术公司
运营商所在国:
美国
制造商(研发单位):
太空探索技术公司
制造商所在国:
美国
使用方式:
暂无
Satellite Introduction
Starlink 计划是 SpaceX 推出的全球卫星互联网项目,通过发射低轨道卫星,为全球尤其是偏远地区提供高速、低延迟的互联网服务。自 2019 年起,Starlink 已部署数千颗卫星,旨在缩小全球数字鸿沟,推动互联网普及。该项目还为军事、航空等行业提供通信支持,带来广泛经济效益。
2D Orbit Map
3D Orbit Map
Orbit Altitude Analysis Chart
Orbit Inclination Analysis Chart
Orbit Comprehensive Analysis Chart
View Comprehensive Chart
Conjunction Data List
Event ID Objects TCA Miss Dist (km) Collision Risk Probability Collision Risk Index (CRI) Action
CDM_260906-102804-750506-951521
HAWK-2A (47505)
2026-09-06T
10:28:50+0000
0.192 km
中距离
6.090956E-4 高风险 0.91
CDM_260906-080606-873706-951521
2026-09-06T
08:06:48+0000
2.952 km
极远距离
1.363324E-6 低风险 0.38
CDM_260906-080704-750506-951521
HAWK-2A (47505)
2026-09-06T
08:07:52+0000
2.835 km
极远距离
8.427871E-7 极低风险 0.34